[[{"header":{"parameterUnit":"m.s-1","parameterCategory":1,"la1":30.2991,"la2":30.254,"lo1":-89.0895,"lo2":-89.0444,"dy":0.0017,"dx":0.0017,"nx":28,"ny":28,"refTime":"2024-04-09T21:00:00:Z","depth":0,"parameterNumber":2,"parameterNumberName":"U-component_of_WINDS"},"data":[0,0,0,0,0,0,0,0,0,0,0,0,0,0,0,0,0,0,0,0,0,0,0,0,0,0,0,0,0,0,0,0,0,0,0,0,0,0,0,0,0,0,0,0,0,0,0,0,0,0,0,0,0,0,0,0,0,0,-0.9285,-0.9287,0,-0.9451,-0.9453,-0.9455,-0.9538,-0.9538,-0.9538,-0.9538,-0.9714,-0.9719,-0.9724,0,0,0,0,0,0,0,0,0,0,0,0,0,-0.9045,-0.9049,-0.9285,-0.9287,-0.9289,-0.9451,-0.9453,-0.9456,-0.9538,-0.9538,-0.9538,-0.9538,-0.9713,-0.9718,-0.9724,0,0,0,0,0,0,0,0,0,0,0,0,0,-0.9174,-0.905,-0.9284,-0.9349,-0.9357,-0.945,-0.9453,-0.9456,-0.9538,-0.9538,-0.9538,-0.9538,-0.9711,-0.9718,-0.9725,-0.9768,0,0,-0.9746,-0.9749,0,0,0,0,0,0,0,0,-0.9167,-0.9183,-0.9338,-0.9345,-0.9354,-0.9474,-0.9434,-0.9561,-0.9538,-0.9469,-0.9538,-0.9538,-0.9635,-0.9648,-0.9679,-0.9776,-0.9784,-0.9747,-0.9751,-0.9754,-0.9756,0,0,0,0,0,0,0,-0.9158,-0.9176,-0.9351,-0.934,-0.935,-0.9373,-0.9391,-0.9458,-0.955,-0.9475,-0.9482,-0.95,-0.9639,-0.9672,-0.9684,-0.9787,-0.9747,-0.9753,-0.9757,-0.976,-0.993,-0.993,0,0,0,0,0,0,-0.9137,-0.9168,-0.9346,-0.9356,-0.9258,-0.9377,-0.9397,-0.9435,-0.955,-0.9567,-0.95,-0.9503,-0.966,-0.9676,-0.9691,-0.975,-0.9754,-0.9761,-0.9765,-0.993,-0.993,-0.993,0,0,0,0,0,0,-0.9132,-0.9152,-0.9339,-0.9264,-0.9289,-0.9381,-0.9423,-0.9439,-0.9472,-0.9568,-0.9585,-0.9516,-0.9661,-0.9681,-0.9748,-0.9757,-0.9764,-0.977,-0.9929,-0.993,-0.993,-0.9869,0,0,0,0,0,0,-0.9125,-0.915,-0.9166,-0.9263,-0.9293,-0.9391,-0.9423,-0.9442,-0.9483,-0.9489,-0.9588,-0.9605,-0.9662,-0.9737,-0.9755,-0.9767,-0.9776,-0.9929,-0.993,-0.993,-0.987,-0.9867,-0.9864,0,0,0,0,0,-0.9116,-0.9143,-0.9166,-0.9187,-0.9314,-0.9392,-0.9409,-0.9473,-0.9483,-0.9501,-0.9563,-0.9602,-0.9753,-0.9744,-0.9764,-0.9779,-0.9929,-0.9929,-0.993,-0.9872,-0.9867,-0.9864,0,0,0,0,0,0,-0.9045,-0.9157,-0.9184,-0.9243,-0.9307,-0.9405,-0.943,-0.9466,-0.953,-0.9534,-0.9612,-0.9634,-0.9695,-0.9744,-0.9731,-0.9828,-0.9845,-0.985,-0.9793,-0.979,-0.9787,-0.9775,-0.9782,0,0,0,0,0,-0.9036,-0.9088,-0.9183,-0.9226,-0.9257,-0.9337,-0.9374,-0.9417,-0.9488,-0.9516,-0.9583,-0.9652,-0.9716,-0.9756,-0.9819,-0.9878,-0.9902,-0.9898,-0.9895,-0.9892,-0.9895,-0.9932,-0.9932,-0.9932,-0.9932,-0.9932,0,0,-0.9019,-0.9086,-0.9114,-0.9214,-0.9268,-0.9322,-0.936,-0.9415,-0.9456,-0.9525,-0.9593,-0.9644,-0.9727,-0.979,-0.9821,-0.9833,-0.99,-0.9893,-0.9889,-0.9895,-0.9932,-0.9932,-0.9932,-0.9933,-0.9933,-0.9933,0,0,-0.9015,-0.907,-0.9112,-0.9166,-0.9248,-0.9302,-0.9312,-0.9405,-0.9441,-0.951,-0.9563,-0.9615,-0.9722,-0.9779,-0.9822,-0.984,-0.9878,-0.9858,-0.9842,-0.9877,-0.9877,-0.9877,-0.9885,-0.9887,-0.9862,-0.9861,-0.9861,0,-0.8983,-0.9064,-0.913,-0.9182,-0.9225,-0.9288,-0.9333,-0.9383,-0.9482,-0.9511,-0.9522,-0.9658,-0.9718,-0.9797,-0.9801,-0.9833,-0.9849,-0.9848,-0.9871,-0.9872,-0.9874,-0.9882,-0.9884,-0.9859,-0.9859,-0.9859,-0.9859,0,-0.9022,-0.9077,-0.9102,-0.9194,-0.924,-0.9288,-0.9364,-0.9403,-0.9443,-0.9496,-0.9566,-0.964,-0.972,-0.9742,-0.9782,-0.9827,-0.9831,-0.9855,-0.9875,-0.9869,-0.9879,-0.9882,-0.9854,-0.9855,-0.9856,-0.9857,0,0,-0.8978,-0.9105,-0.9114,-0.9157,-0.9252,-0.9298,-0.935,-0.9427,-0.9459,-0.9526,-0.9573,-0.9663,-0.9686,-0.9734,-0.9782,-0.9812,-0.9823,-0.9833,-0.9836,-0.9829,-0.9879,-0.986,-0.9863,-0.9849,-0.985,-0.9851,-0.9872,0,-0.8987,-0.9081,-0.9142,-0.9213,-0.9266,-0.9327,-0.9373,-0.9438,-0.9489,-0.9544,-0.9602,-0.9664,-0.9689,-0.9719,-0.9751,-0.9815,-0.9834,-0.9814,-0.9896,-0.9898,-0.9874,-0.9868,-0.9848,-0.9865,-0.9876,-0.9877,-0.9877,0,-0.9011,-0.9074,-0.9149,-0.924,-0.9265,-0.9304,-0.938,-0.9431,-0.9507,-0.9542,-0.9596,-0.9644,-0.9705,-0.9718,-0.9803,-0.9788,-0.9825,-0.9861,-0.9864,-0.9875,-0.9887,-0.9879,-0.9872,-0.9874,-0.9883,-0.9883,-0.9882,0,-0.8972,-0.9077,-0.9135,-0.917,-0.9277,-0.9304,-0.935,-0.9426,-0.9468,-0.9536,-0.9565,-0.9638,-0.9679,-0.9736,-0.9804,-0.9807,-0.9883,-0.9902,-0.9916,-0.9914,-0.993,-0.9928,-0.9929,-0.9952,-0.9952,-0.9952,-0.9952,0,-0.8977,-0.9021,-0.9119,-0.9155,-0.9207,-0.9278,-0.9328,-0.938,-0.9447,-0.9496,-0.9554,-0.96,-0.9686,-0.9743,-0.9797,-0.986,-0.9878,-0.991,-0.9924,-0.9905,-0.9901,-0.9931,-0.9932,-0.9953,-0.9952,-0.9952,-0.9952,0,-0.8943,-0.901,-0.9078,-0.9174,-0.9199,-0.9233,-0.9316,-0.9355,-0.9409,-0.9471,-0.949,-0.9576,-0.9646,-0.9719,-0.9814,-0.9851,-0.9912,-0.9931,-0.9886,-0.9894,-0.9904,-0.9903,-0.9926,-0.9933,-0.9949,-0.9949,-0.9949,0,-0.8942,-0.8977,-0.9076,-0.9112,-0.9156,-0.9213,-0.9257,-0.9329,-0.9372,-0.9461,-0.949,-0.9564,-0.9627,-0.9736,-0.9809,-0.9883,-0.9904,-0.9907,-0.9916,-0.9896,-0.9906,-0.9903,-0.9908,-0.9904,-0.9904,-0.9903,-0.9903,0,-0.8933,-0.8965,-0.9024,-0.9095,-0.9144,-0.9205,-0.9267,-0.9294,-0.9379,-0.9425,-0.9496,-0.9544,-0.9641,-0.9715,-0.9797,-0.9848,-0.9891,-0.99,-0.9907,-0.9889,-0.9862,-0.9878,-0.9879,-0.9899,-0.9899,-0.99,-0.99,-0.99,-0.8917,-0.8951,-0.9026,-0.909,-0.9144,-0.9201,-0.9243,-0.9302,-0.9362,-0.9445,-0.9484,-0.9556,-0.9633,-0.9748,-0.9798,-0.9856,-0.9869,-0.9879,-0.9882,-0.9884,-0.988,-0.9851,-0.9872,-0.9872,-0.9872,-0.9872,-0.9873,0,-0.8912,-0.8963,-0.9021,-0.9106,-0.9157,-0.919,-0.9262,-0.9303,-0.9364,-0.9432,-0.9492,-0.9575,-0.9647,-0.9725,-0.9802,-0.9834,-0.9856,-0.9852,-0.9851,-0.9862,-0.9864,-0.985,-0.9833,-0.9833,-0.9833,-0.9833,-0.9833,-0.9833,-0.8915,-0.8975,-0.9016,-0.9105,-0.9157,-0.9225,-0.9263,-0.9317,-0.9372,-0.946,-0.9519,-0.9569,-0.9642,-0.9725,-0.9793,-0.9815,-0.9841,-0.9832,-0.9859,-0.9859,-0.9862,-0.9865,-0.9852,-0.9837,-0.9837,-0.9853,-0.9853,-0.9853]},{"header":{"parameterUnit":"m.s-1","parameterCategory":1,"la1":30.2991,"la2":30.254,"lo1":-89.0895,"lo2":-89.0444,"dy":0.0017,"dx":0.0017,"nx":28,"ny":28,"refTime":"2024-04-09T21:00:00:Z","depth":0,"parameterNumber":3,"parameterNumberName":"V-component_of_WINDS"},"data":[0,0,0,0,0,0,0,0,0,0,0,0,0,0,0,0,0,0,0,0,0,0,0,0,0,0,0,0,0,0,0,0,0,0,0,0,0,0,0,0,0,0,0,0,0,0,0,0,0,0,0,0,0,0,0,0,0,0,11.7285,11.7287,0,11.7562,11.7565,11.7568,11.7592,11.7589,11.7586,11.7583,11.7855,11.7865,11.7875,0,0,0,0,0,0,0,0,0,0,0,0,0,11.6765,11.6774,11.7284,11.7288,11.7291,11.7561,11.7565,11.7569,11.7592,11.7588,11.7585,11.7582,11.7852,11.7864,11.7876,0,0,0,0,0,0,0,0,0,0,0,0,0,11.7011,11.6777,11.7284,11.7336,11.7343,11.7561,11.7565,11.757,11.7593,11.7588,11.7584,11.758,11.7848,11.7863,11.7877,11.8058,0,0,11.7923,11.793,0,0,0,0,0,0,0,0,11.6997,11.703,11.7325,11.7332,11.7341,11.7538,11.7482,11.7733,11.7594,11.7498,11.7583,11.7578,11.7752,11.7775,11.7836,11.8071,11.8083,11.7925,11.7934,11.794,11.7944,0,0,0,0,0,0,0,11.698,11.7018,11.7394,11.7329,11.7339,11.7342,11.7372,11.753,11.7646,11.7506,11.7508,11.7541,11.7756,11.7822,11.7843,11.8087,11.7924,11.7937,11.7947,11.7953,11.8485,11.849,0,0,0,0,0,0,11.6954,11.7003,11.7385,11.7402,11.7155,11.7355,11.7388,11.7479,11.7645,11.7666,11.7545,11.7541,11.7798,11.7825,11.7853,11.8077,11.794,11.7954,11.7963,11.848,11.8486,11.8492,0,0,0,0,0,0,11.6943,11.6988,11.7374,11.7204,11.7253,11.7369,11.747,11.7487,11.7553,11.7674,11.7694,11.7591,11.7796,11.7831,11.8008,11.8087,11.7961,11.7974,11.8474,11.8482,11.8489,11.8526,0,0,0,0,0,0,11.6928,11.6984,11.7056,11.7205,11.7262,11.7528,11.7475,11.7495,11.758,11.7578,11.7723,11.7743,11.7795,11.7986,11.8023,11.8105,11.7986,11.8468,11.8478,11.8487,11.8518,11.8534,11.8547,0,0,0,0,0,11.6909,11.7052,11.706,11.7106,11.7355,11.7532,11.7565,11.7625,11.7586,11.7659,11.7737,11.7738,11.8072,11.8004,11.8046,11.8133,11.8463,11.8475,11.8486,11.8512,11.8531,11.8547,0,0,0,0,0,0,11.6905,11.7073,11.7083,11.7279,11.7392,11.7536,11.7629,11.7643,11.7767,11.7759,11.7826,11.7858,11.8033,11.8101,11.8022,11.8318,11.8263,11.8283,11.8268,11.8287,11.8301,11.8281,11.7999,0,0,0,0,0,11.6927,11.7061,11.7199,11.7358,11.7415,11.7513,11.7592,11.763,11.7747,11.7794,11.7885,11.7996,11.8126,11.821,11.8336,11.8528,11.856,11.8609,11.8623,11.8635,11.8652,11.8759,11.8783,11.853,11.853,11.853,0,0,11.6974,11.7082,11.7161,11.736,11.7452,11.7586,11.7552,11.7694,11.7794,11.7814,11.7989,11.8059,11.8187,11.8373,11.8459,11.8434,11.8729,11.865,11.8658,11.8669,11.8773,11.8797,11.8818,11.8538,11.8537,11.8535,0,0,11.7128,11.7223,11.7368,11.7462,11.7603,11.7667,11.7702,11.7845,11.7895,11.8071,11.809,11.8207,11.8429,11.8521,11.8596,11.8787,11.8793,11.8826,11.8902,11.9006,11.9025,11.9043,11.9112,11.9136,11.8842,11.8842,11.8842,0,11.7166,11.7373,11.7439,11.7584,11.767,11.7699,11.7845,11.7931,11.8104,11.8162,11.8133,11.8415,11.8503,11.8711,11.8758,11.8818,11.8858,11.8809,11.9018,11.9037,11.9054,11.912,11.9146,11.8845,11.8845,11.8845,11.8844,0,11.7414,11.7557,11.7656,11.7828,11.7926,11.8069,11.8155,11.8245,11.8274,11.8341,11.852,11.8627,11.8777,11.8829,11.8856,11.9041,11.9022,11.9005,11.8951,11.9081,11.9144,11.917,11.885,11.8849,11.8848,11.8847,0,0,11.7572,11.7782,11.7817,11.7896,11.8055,11.8165,11.8309,11.8459,11.8536,11.8654,11.8776,11.8965,11.8951,11.9037,11.9075,11.9166,11.9312,11.9138,11.9142,11.9167,11.9522,11.9535,11.9563,11.9317,11.9322,11.9326,11.9511,0,11.7744,11.8007,11.8072,11.8294,11.8427,11.8457,11.8583,11.8692,11.8758,11.8877,11.8948,11.9082,11.9053,11.9105,11.9197,11.9274,11.9384,11.9262,11.9428,11.9434,11.9396,11.9596,11.9609,11.978,11.9536,11.9541,11.9544,0,11.798,11.8109,11.8347,11.8491,11.8548,11.8661,11.8805,11.8919,11.9043,11.9084,11.9182,11.9212,11.9361,11.93,11.9505,11.9421,11.9493,11.9541,11.9549,11.9567,11.9497,11.9619,11.9835,11.9861,11.9583,11.958,11.9577,0,11.8072,11.8305,11.8478,11.8545,11.8716,11.8795,11.8869,11.8989,11.9076,11.92,11.9257,11.9395,11.9471,11.9576,11.9642,11.9591,11.9842,11.9786,11.9879,11.9878,11.9931,11.9926,12.0161,11.9976,11.9976,11.9975,11.9975,0,11.8259,11.8403,11.8523,11.8629,11.8791,11.8863,11.902,11.9094,11.9201,11.932,11.9353,11.9463,11.9543,11.9664,11.9716,11.9878,11.9912,11.9948,11.996,11.9946,11.9941,11.9994,11.9984,11.9982,11.998,11.9979,11.9978,0,11.8389,11.8475,11.8666,11.8814,11.8855,11.8968,11.9093,11.9196,11.9264,11.9414,11.9453,11.9558,11.9702,11.9779,11.9957,11.9992,12.0175,12.018,12.0135,12.014,12.0229,12.022,12.0506,12.0547,12.0334,12.0336,12.0337,0,11.8502,11.8615,11.8777,11.8862,11.8939,11.9073,11.9164,11.9238,11.933,11.9481,11.9566,11.9713,11.9834,12.0062,12.0152,12.0289,12.0298,12.0389,12.0319,12.0301,12.03,12.0293,12.0305,12.0401,12.0403,12.0405,12.0406,0,11.8695,11.8733,11.8864,11.9011,11.9119,11.9237,11.9353,11.9419,11.9512,11.9613,11.9764,11.9858,12.0044,12.0188,12.0333,12.0406,12.0421,12.0428,12.0457,12.0444,12.0413,12.0432,12.0169,12.0421,12.0419,12.0418,12.0417,12.0417,11.8821,11.8923,11.9054,11.9199,11.9296,11.9404,11.9509,11.9592,11.972,11.988,11.9914,12.0073,12.0194,12.0391,12.0468,12.0591,12.0573,12.0614,12.0625,12.0634,12.0639,12.0394,12.0617,12.0617,12.0617,12.0617,12.0616,0,11.9016,11.9103,11.9236,11.94,11.9514,11.9523,11.9652,11.9746,11.9887,12.0001,12.0121,12.0294,12.0435,12.0538,12.0681,12.076,12.0771,12.0795,12.079,12.0807,12.0647,12.0608,12.0784,12.0784,12.0784,12.0784,12.0784,12.0784,11.9131,11.9305,11.9358,11.958,11.9664,11.9824,11.9897,11.9997,12.0088,12.0282,12.0401,12.0468,12.0577,12.0729,12.0859,12.0885,12.0936,12.096,12.0987,12.0835,12.0818,12.0801,12.0765,12.0971,12.0971,12.1137,12.1138,12.1139]}]]